This demonstration page uses our WeatherBlox Daily Observations layout. Learn more.

Left ArrowRight Arrow

39.08367, -84.50855

Hourly Observations for April 10, 2018

Temp ( °F °C ) Dew Point ( °F °C ) Humidity (%) Winds ( mph kmh ) Pressure ( in mb ) Visibility ( mi km ) Precip ( " mm )
12:53 am 00:53 Cloudy 40 4.4 32 undefined 73 73 N N/A 30.25 1024 10 16 N/A
1:53 am 01:53 Cloudy 39 3.9 32 undefined 76 76 N N/A 30.25 1024 10 16 N/A
2:53 am 02:53 Cloudy 38 3.3 32 undefined 79 79 N N/A 30.26 1025 10 16 N/A
3:53 am 03:53 Mostly Cloudy 35 1.7 32 undefined 89 89 N N/A 30.26 1025 10 16 N/A
4:53 am 04:53 Clear 33 0.6 32 undefined 96 96 N N/A 30.27 1025 8 13 N/A
5:53 am 05:53 Clear 33 0.6 32 undefined 96 96 N N/A 30.28 1025 7 11 N/A
6:53 am 06:53 Clear with Mist and Fog 32 undefined 31 -0.6 96 96 N N/A 30.29 1026 5 8 N/A
7:53 am 07:53 Sunny with Mist and Fog 32 undefined 31 -0.6 96 96 N N/A 30.31 1026 6 10 N/A
8:53 am 08:53 Sunny with Mist and Fog 37 2.8 34 1.1 89 89 ENE 3 6 30.32 1027 6 10 N/A
9:53 am 09:53 Mostly Sunny 41 5 32 undefined 70 70 N N/A 30.32 1027 10 16 N/A
10:53 am 10:53 Mostly Cloudy 44 6.7 32 undefined 63 63 N N/A 30.32 1027 10 16 N/A
11:53 am 11:53 Cloudy 44 6.7 29 -1.7 55 55 NW 6 9 30.32 1027 10 16 N/A
12:53 pm 12:53 Cloudy 44 6.7 29 -1.7 55 55 N N/A 30.30 1026 10 16 N/A
1:53 pm 13:53 Cloudy 44 6.7 29 -1.7 55 55 SW 6 9 30.28 1026 10 16 N/A
2:53 pm 14:53 Cloudy 47 8.3 30 -1.1 52 52 VRB 6 9 30.27 1025 10 16 N/A
3:53 pm 15:53 Cloudy 46 7.8 29 -1.7 51 51 W 6 9 30.25 1024 10 16 N/A
4:53 pm 16:53 Cloudy 46 7.8 28 -2.2 50 50 WSW 5 7 30.24 1024 10 16 N/A
5:53 pm 17:53 Cloudy 46 7.8 28 -2.2 50 50 NW 7 11 30.24 1024 10 16 N/A
6:53 pm 18:53 Cloudy 45 7.2 28 -2.2 52 52 WNW 6 9 30.23 1024 10 16 N/A
7:53 pm 19:53 Cloudy 44 6.7 27 -2.8 51 51 NW 7 11 30.23 1024 10 16 N/A
8:53 pm 20:53 Cloudy 44 6.7 28 -2.2 53 53 NW 3 6 30.23 1024 10 16 N/A
9:53 pm 21:53 Mostly Clear 41 5 28 -2.2 60 60 NNW 5 7 30.24 1024 10 16 N/A
10:53 pm 22:53 Clear 37 2.8 31 -0.6 79 79 N N/A 30.23 1024 10 16 N/A

Powered by AerisWeather